Flag for U.S.A. Weather past 2 weeks in Colorado Springs, Colorado, U.S.A.

60 °F

Partly sunny.

Feels Like: 60 °F
Forecast: 27 / 54 °F
Wind: 16 mph from Southeast

Location: City Of Colorado Springs Municipal Airport

Current Time: Nov 25, 2015 at 1:40:52 PM

Latest Report: Nov 25, 2015 at 12:54 PM

Visibility: 10 mi

Pressure: 29.68 "Hg (23.90 "Hg at 1831m altitude)

Humidity: 12%

Dew point: 7 °F

Location of Colorado SpringsLocation

Historic Weather in Colorado Springs — Graph


Colorado Springs temperature yesterday

Maximum temperature yesterday: 62 °F (at 2:54 PM)
Minimum temperature yesterday: 30 °F (at 2:54 AM)
Average temperature yesterday: 45 °F

Past Weeks' High & Low Weather Summary

High64 °F (Nov 14, 11:54 AM)96% (Nov 16, 6:54 PM)30.52 "Hg (Nov 16, 6:54 PM)
Low18 °F (Nov 21, 4:54 AM)8% (Nov 15, 1:54 PM)29.31 "Hg (Nov 16, 12:54 PM)
Average40 °F42%29.94 "Hg
* Reported Nov 10 11:54 AM — Nov 25 11:54 AM, Colorado Springs, Weather by CustomWeather, © 2015

Note: Actual official high and low records may vary slightly from our data, if they occured in-between our weather recording intervals... More about our weather records


Colorado Springs weather history for previous 24 hours

Time TempWeatherWind HumidityBarometerVisibility
11:54 AM
Wed, Nov 25
62 °FPartly sunny.10 mph11%29.66 "Hg10 mi
10:54 AM60 °FScattered clouds.13 mph14%29.71 "Hg10 mi
9:54 AM60 °FScattered clouds.6 mph11%29.74 "Hg10 mi
8:54 AM55 °FScattered clouds.6 mph16%29.76 "Hg10 mi
7:54 AM49 °FPartly sunny.5 mph18%29.76 "Hg10 mi
6:54 AM42 °FPartly sunny.7 mph29%29.73 "Hg10 mi
5:54 AM38 °FPassing clouds.7 mph33%29.74 "Hg10 mi
4:54 AM39 °FPassing clouds.5 mph31%29.72 "Hg10 mi
3:54 AM33 °FPassing clouds.6 mph45%29.69 "Hg10 mi
2:54 AM36 °FClear.7 mph38%29.68 "Hg10 mi
1:54 AM36 °FClear.7 mph40%29.68 "Hg10 mi
12:54 AM42 °FClear.3 mph28%29.66 "Hg10 mi
11:54 PM
Tue, Nov 24
48 °FPassing clouds.5 mph22%29.65 "Hg10 mi
10:54 PM42 °FPassing clouds.No wind30%29.70 "Hg10 mi
9:54 PM35 °FPassing clouds.5 mph44%29.75 "Hg10 mi
8:54 PM35 °FPassing clouds.9 mph46%29.79 "Hg10 mi
7:54 PM37 °FClear.5 mph41%29.83 "Hg10 mi
6:54 PM45 °FPassing clouds.14 mph27%29.83 "Hg10 mi
5:54 PM47 °FPassing clouds.10 mph23%29.82 "Hg10 mi
4:54 PM51 °FPassing clouds.10 mph18%29.80 "Hg10 mi
3:54 PM60 °FPartly sunny.8 mph11%29.75 "Hg10 mi
2:54 PM62 °FPartly sunny.18 mph11%29.74 "Hg10 mi
1:54 PM61 °FScattered clouds.9 mph12%29.75 "Hg10 mi
Weather by CustomWeather, © 2015

See weather overviewHow to use our weather pages